Previsão horária em Abaliget

Hoje, 11 Abril, Domingo

Tempo Temperatura Precipitação Vento Pressão Humidade
00:00 +7°C° 0 mm 2 m/s 749 mmHg 77%
01:00 +7°C° 0 mm 2 m/s 749 mmHg 78%
02:00 +7°C° 0 mm 2 m/s 748 mmHg 78%
03:00 +6°C° 0 mm 2 m/s 748 mmHg 79%
04:00 +6°C° 0 mm 2 m/s 748 mmHg 80%
05:00 +7°C° 0 mm 2 m/s 748 mmHg 77%
06:00 +8°C° 0 mm 2 m/s 748 mmHg 73%
07:00 +9°C° 0 mm 2 m/s 748 mmHg 70%
08:00 +12°C° 0 mm 2 m/s 748 mmHg 64%
09:00 +12°C° 0 mm 3 m/s 748 mmHg 59%
10:00 +14°C° 0 mm 3 m/s 749 mmHg 53%
11:00 +13°C° 0 mm 3 m/s 748 mmHg 55%
12:00 +13°C° 0 mm 3 m/s 748 mmHg 56%
13:00 +13°C° 0 mm 3 m/s 748 mmHg 57%
14:00 +13°C° 0 mm 3 m/s 748 mmHg 56%
15:00 +13°C° 0 mm 4 m/s 748 mmHg 55%
16:00 +13°C° 0 mm 4 m/s 748 mmHg 54%
17:00 +12°C° 0 mm 4 m/s 748 mmHg 60%
18:00 +11°C° 0 mm 3 m/s 748 mmHg 66%
19:00 +10°C° 0 mm 3 m/s 748 mmHg 72%
20:00 +9°C° 0 mm 2 m/s 748 mmHg 74%
21:00 +9°C° 0 mm 2 m/s 748 mmHg 77%
22:00 +8°C° 0 mm 2 m/s 748 mmHg 79%
23:00 +8°C° 0 mm 2 m/s 748 mmHg 79%

Amanhã, 12 Abril, Segunda-feira

Tempo Temperatura Precipitação Vento Pressão Humidade
00:00 +8°C° 0 mm 2 m/s 748 mmHg 80%
01:00 +7°C° 0 mm 2 m/s 748 mmHg 80%
02:00 +7°C° 0 mm 2 m/s 748 mmHg 80%
03:00 +7°C° 0 mm 2 m/s 747 mmHg 81%
04:00 +7°C° 0 mm 2 m/s 747 mmHg 81%
05:00 +8°C° 0 mm 2 m/s 747 mmHg 76%
06:00 +9°C° 0 mm 2 m/s 747 mmHg 72%
07:00 +12°C° 0 mm 2 m/s 747 mmHg 68%
08:00 +14°C° 0 mm 2 m/s 747 mmHg 62%
09:00 +16°C° 0 mm 3 m/s 747 mmHg 55%
10:00 +18°C° 0 mm 3 m/s 747 mmHg 49%
11:00 +18°C° 0 mm 3 m/s 747 mmHg 48%
12:00 +19°C° 0 mm 3 m/s 747 mmHg 46%
13:00 +20°C° 0 mm 3 m/s 747 mmHg 45%
14:00 +19°C° 0 mm 3 m/s 746 mmHg 49%
15:00 +18°C° 0 mm 3 m/s 746 mmHg 53%
16:00 +18°C° 0 mm 4 m/s 746 mmHg 57%
17:00 +16°C° 0 mm 3 m/s 746 mmHg 67%
18:00 +13°C° 0 mm 3 m/s 746 mmHg 76%
19:00 +12°C° 0 mm 2 m/s 746 mmHg 86%
20:00 +12°C° 0 mm 2 m/s 747 mmHg 86%
21:00 +12°C° 0 mm 2 m/s 747 mmHg 87%
22:00 +12°C° 0 mm 2 m/s 747 mmHg 87%
23:00 +9°C° 0.5 mm 3 m/s 747 mmHg 87%

Depois de amanhã, 13 Abril, Terça-feira

Tempo Temperatura Precipitação Vento Pressão Humidade
00:00 +7°C° 0.5 mm 4 m/s 747 mmHg 87%
01:00 +5°C° 0.5 mm 5 m/s 748 mmHg 88%
02:00 +3°C° 0.1 mm 5 m/s 748 mmHg 88%
03:00 +3°C° 0.1 mm 5 m/s 748 mmHg 88%
04:00 +2°C° 0.1 mm 5 m/s 747 mmHg 88%
05:00 +2°C° 0.1 mm 5 m/s 747 mmHg 88%
06:00 +3°C° 0.1 mm 4 m/s 747 mmHg 89%
07:00 +3°C° 0.1 mm 4 m/s 747 mmHg 89%
08:00 +3°C° 0.5 mm 4 m/s 747 mmHg 90%
09:00 +3°C° 0.5 mm 4 m/s 747 mmHg 91%
10:00 +3°C° 0.5 mm 4 m/s 747 mmHg 91%
11:00 +2°C° 0.4 mm 5 m/s 747 mmHg 92%
12:00 +1°C° 0.4 mm 5 m/s 747 mmHg 92%
13:00 +1°C° 0.4 mm 5 m/s 747 mmHg 92%
14:00 +1°C° 0.4 mm 5 m/s 747 mmHg 93%
15:00 +1°C° 0.4 mm 5 m/s 747 mmHg 94%
16:00 0°C° 0.4 mm 5 m/s 747 mmHg 96%
17:00 -1°C° 0.1 mm 6 m/s 747 mmHg 94%
18:00 -1°C° 0.1 mm 6 m/s 747 mmHg 93%
19:00 +1°C° 0.1 mm 6 m/s 747 mmHg 92%
20:00 -1°C° 0 mm 6 m/s 748 mmHg 92%
21:00 -1°C° 0 mm 6 m/s 748 mmHg 92%
22:00 -1°C° 0 mm 6 m/s 748 mmHg 92%
23:00 0°C° 0 mm 5 m/s 748 mmHg 93%

14 Abril, Quarta-feira

Tempo Temperatura Precipitação Vento Pressão Humidade
00:00 0°C° 0 mm 5 m/s 748 mmHg 94%
01:00 0°C° 0 mm 5 m/s 748 mmHg 95%
02:00 0°C° 0.1 mm 5 m/s 747 mmHg 96%
03:00 -1°C° 0.1 mm 6 m/s 747 mmHg 96%
04:00 -1°C° 0.1 mm 6 m/s 747 mmHg 96%
05:00 -1°C° 0.2 mm 6 m/s 747 mmHg 96%
06:00 -1°C° 0.2 mm 6 m/s 747 mmHg 96%
07:00 0°C° 0.2 mm 5 m/s 747 mmHg 96%
08:00 0°C° 0.2 mm 5 m/s 747 mmHg 96%
09:00 +1°C° 0.2 mm 5 m/s 747 mmHg 95%
10:00 +1°C° 0.2 mm 5 m/s 748 mmHg 95%
11:00 +2°C° 0.2 mm 5 m/s 747 mmHg 91%
12:00 +3°C° 0.2 mm 6 m/s 747 mmHg 87%
13:00 +3°C° 0.2 mm 6 m/s 747 mmHg 83%
14:00 +4°C° 0.1 mm 6 m/s 747 mmHg 80%
15:00 +4°C° 0.1 mm 6 m/s 747 mmHg 76%
16:00 +5°C° 0.1 mm 6 m/s 747 mmHg 72%
17:00 +4°C° 0 mm 6 m/s 747 mmHg 73%
18:00 +3°C° 0 mm 6 m/s 747 mmHg 73%
19:00 +2°C° 0 mm 5 m/s 748 mmHg 74%
20:00 +2°C° 0 mm 5 m/s 748 mmHg 77%
21:00 +2°C° 0 mm 5 m/s 748 mmHg 81%
22:00 +1°C° 0 mm 5 m/s 748 mmHg 84%
23:00 +1°C° 0 mm 5 m/s 748 mmHg 83%

15 Abril, Quinta-feira

Tempo Temperatura Precipitação Vento Pressão Humidade
00:00 +1°C° 0 mm 6 m/s 748 mmHg 81%
01:00 +2°C° 0 mm 6 m/s 748 mmHg 79%
02:00 +1°C° 0 mm 6 m/s 748 mmHg 81%
03:00 +1°C° 0 mm 6 m/s 748 mmHg 83%
04:00 +1°C° 0 mm 6 m/s 748 mmHg 84%
05:00 +1°C° 0 mm 6 m/s 748 mmHg 82%
06:00 +1°C° 0 mm 6 m/s 748 mmHg 80%
07:00 +1°C° 0 mm 6 m/s 748 mmHg 78%
08:00 +2°C° 0.1 mm 6 m/s 749 mmHg 77%
09:00 +2°C° 0.1 mm 7 m/s 749 mmHg 75%
10:00 +3°C° 0.1 mm 7 m/s 749 mmHg 73%
11:00 +4°C° 0.1 mm 7 m/s 749 mmHg 68%
12:00 +5°C° 0.1 mm 7 m/s 749 mmHg 64%
13:00 +5°C° 0.1 mm 7 m/s 749 mmHg 59%
14:00 +5°C° 0.1 mm 7 m/s 749 mmHg 59%
15:00 +6°C° 0.1 mm 7 m/s 749 mmHg 59%
16:00 +7°C° 0.1 mm 6 m/s 749 mmHg 58%
17:00 +4°C° 0 mm 6 m/s 749 mmHg 63%
18:00 +3°C° 0 mm 5 m/s 749 mmHg 68%
19:00 +3°C° 0 mm 4 m/s 750 mmHg 73%
20:00 +3°C° 0 mm 4 m/s 750 mmHg 76%
21:00 +1°C° 0 mm 4 m/s 750 mmHg 79%
22:00 +1°C° 0 mm 4 m/s 750 mmHg 82%
23:00 +1°C° 0 mm 4 m/s 750 mmHg 82%

16 Abril, Sexta-feira

Tempo Temperatura Precipitação Vento Pressão Humidade
00:00 +1°C° 0 mm 4 m/s 750 mmHg 81%
01:00 0°C° 0 mm 5 m/s 750 mmHg 80%
02:00 0°C° 0 mm 5 m/s 751 mmHg 83%
03:00 0°C° 0 mm 5 m/s 751 mmHg 85%
04:00 0°C° 0 mm 4 m/s 751 mmHg 87%
05:00 0°C° 0 mm 5 m/s 751 mmHg 85%
06:00 +1°C° 0 mm 5 m/s 751 mmHg 82%
07:00 +1°C° 0 mm 5 m/s 751 mmHg 80%
08:00 +2°C° 0 mm 5 m/s 752 mmHg 77%
09:00 +3°C° 0 mm 5 m/s 752 mmHg 74%
10:00 +3°C° 0 mm 5 m/s 752 mmHg 70%
11:00 +5°C° 0 mm 4 m/s 752 mmHg 68%
12:00 +6°C° 0 mm 4 m/s 752 mmHg 66%
13:00 +7°C° 0 mm 4 m/s 752 mmHg 64%
14:00 +8°C° 0 mm 3 m/s 751 mmHg 64%
15:00 +8°C° 0 mm 3 m/s 751 mmHg 65%
16:00 +8°C° 0 mm 3 m/s 751 mmHg 66%
17:00 +7°C° 0 mm 2 m/s 751 mmHg 69%
18:00 +7°C° 0 mm 2 m/s 752 mmHg 72%
19:00 +6°C° 0 mm 2 m/s 752 mmHg 76%
20:00 +6°C° 0 mm 2 m/s 752 mmHg 78%
21:00 +6°C° 0 mm 2 m/s 752 mmHg 80%
22:00 +6°C° 0 mm 2 m/s 752 mmHg 83%
23:00 +6°C° 0 mm 1 m/s 752 mmHg 84%
Mostrar mais